カタログに戻る

SL-16 DEB

運用中LEO
NORAD 39849·DEBRIS·🇷🇺 Russia

打ち上げ Dec 25, 1992 から Baikonur Cosmodrome

Loading…

次のパス (今後24時間)

TLE

最新Source: Space-Track

元期: Sep 14, 2026, 01:46 UTC

1 39849U 92093LB  26257.07430179  .00000320  00000-0  21674-3 0  9997
2 39849  70.8658  31.2375 0080052  91.5258 269.5031 14.06176133629606

AllMySatでSL-16 DEBをリアルタイム追跡

Download on the App Store